DW1024 Weather Reports


time (UTC)temp
C
wind
direction
speed
KPH
gust
KPH
rain 1hr
cm
rain 24hr
cm
rain mn
cm
humidity
%
barometer
mb
20260507190523 12 66 3.2 11.3 0.00 0.00 0.00 75 1016.6
20260507185022 13 39 1.6 6.4 0.00 0.00 0.00 74 1016.2
20260507183525 13 140 1.6 8.0 0.00 0.00 0.00 73 1016.2
20260507182015 13 186 1.6 9.7 0.00 0.00 0.00 73 1016.1
20260507180515 13 23 1.6 9.7 0.00 0.00 0.00 73 1015.7
20260507175016 13 235 1.6 12.9 0.00 0.00 0.00 73 1015.5
20260507173518 13 348 3.2 14.5 0.00 0.00 0.00 73 1015.3
20260507172018 13 53 3.2 9.7 0.00 0.00 0.00 72 1015.1
20260507165016 14 104 3.2 8.0 0.00 0.00 0.00 70 1015.2
20260507163518 14 261 1.6 4.8 0.00 0.00 0.00 66 1015.1
20260507162017 15 281 1.6 11.3 0.00 0.00 0.00 66 1015.1
20260507160519 15 92 1.6 8.0 0.00 0.00 0.00 67 1014.8
20260507155016 15 292 3.2 12.9 0.00 0.00 0.00 68 1014.8
20260507152016 16 234 3.2 16.1 0.00 0.03 0.00 65 1014.8
20260507150512 16 90 4.8 12.9 0.00 0.23 0.00 61 1014.6
20260507145013 16 254 3.2 11.3 0.00 0.61 0.00 64 1014.6
20260507143513 15 300 4.8 19.3 0.00 0.84 0.00 66 1014.7
20260507140515 16 161 3.2 11.3 0.00 0.84 0.00 64 1014.7
20260507135012 16 74 4.8 12.9 0.00 0.84 0.00 63 1014.8
20260507133515 16 38 4.8 11.3 0.00 0.84 0.00 62 1014.8
20260507130514 17 315 4.8 14.5 0.00 0.84 0.00 63 1014.8
20260507125013 16 235 4.8 19.3 0.00 0.84 0.00 66 1014.8
20260507122012 16 285 6.4 22.5 0.00 0.84 0.00 61 1014.7
20260507120519 15 290 6.4 16.1 0.00 0.84 0.00 64 1014.7
20260507115012 15 218 4.8 17.7 0.00 0.84 0.00 65 1014.8
20260507110503 15 292 6.4 22.5 0.00 0.84 0.00 67 1015.1
20260507105006 14 232 8.0 20.9 0.00 0.84 0.00 68 1015.0
20260507103505 13 182 6.4 20.9 0.00 0.84 0.00 68 1015.0
20260507102006 13 270 6.4 16.1 0.00 0.84 0.00 72 1015.0
20260507100509 14 306 6.4 20.9 0.00 0.84 0.00 68 1015.1
20260507095004 12 198 4.8 19.3 0.00 0.84 0.00 73 1015.0
20260507093508 12 207 4.8 20.9 0.00 0.84 0.00 76 1014.8
20260507092003 12 270 6.4 20.9 0.00 0.84 0.00 75 1014.8
20260507090507 12 322 6.4 17.7 0.00 0.84 0.00 72 1014.5
20260507085004 13 254 4.8 19.3 0.00 0.84 0.00 72 1014.4
20260507082006 13 229 6.4 17.7 0.00 0.84 0.00 70 1014.2
20260507080510 13 263 6.4 20.9 0.00 0.84 0.00 72 1013.9
20260507075002 12 217 6.4 19.3 0.00 0.84 0.00 73 1013.9
20260507073503 12 246 6.4 17.7 0.00 0.84 0.00 75 1014.0
20260507072445 12 267 6.4 20.9 0.00 0.84 0.00 73 1014.0
20260507071811 12 211 6.4 17.7 0.00 0.84 0.00 75 1013.7
20260507065001 12 234 6.4 20.9 0.00 0.84 0.00 75 1013.6
20260507060501 10 205 4.8 14.5 0.00 0.84 0.00 82 1013.3
20260507055002 10 246 4.8 12.9 0.00 0.84 0.00 85 1013.1
20260507053501 9 254 3.2 14.5 0.00 0.84 0.00 88 1013.0
20260507052006 9 248 3.2 9.7 0.00 0.84 0.00 89 1013.0
20260507050505 8 192 1.6 8.0 0.00 0.84 0.00 89 1012.9
20260507045001 8 222 0.0 4.8 0.00 0.84 0.00 89 1012.7
20260507043503 8 234 1.6 4.8 0.00 0.84 0.00 89 1012.6
20260507042002 8 217 0.0 4.8 0.00 0.84 0.00 88 1012.3
20260507040503 8 217 0.0 1.6 0.00 0.84 0.00 87 1012.3
20260507035001 8 217 0.0 1.6 0.00 0.84 0.00 87 1012.2
20260507033507 8 217 0.0 1.6 0.00 0.84 0.00 87 1012.2
20260507032006 8 217 0.0 1.6 0.00 0.84 0.00 87 1012.3
20260507030503 8 217 0.0 3.2 0.00 0.84 0.00 87 1012.4
20260507025005 8 251 0.0 3.2 0.00 0.84 0.00 86 1012.2
20260507023458 8 246 1.6 6.4 0.00 0.84 0.00 87 1011.9
20260507021958 8 205 3.2 6.4 0.00 0.84 0.00 87 1011.9
20260507020457 8 214 3.2 6.4 0.00 0.84 0.00 87 1011.8
20260507014955 8 218 1.6 9.7 0.00 0.84 0.00 87 1011.5
20260507013455 8 178 3.2 8.0 0.00 0.84 0.00 87 1011.5
20260507004955 9 239 3.2 6.4 0.00 0.84 0.00 87 1011.6
20260507003456 9 279 1.6 8.0 0.00 0.84 0.00 86 1011.5
20260507001958 9 227 1.6 8.0 0.00 0.84 0.00 86 1011.5
20260507000450 10 203 1.6 8.0 0.00 0.84 0.00 86 1011.7
20260506233449 10 255 3.2 6.4 0.00 0.84 0.00 86 1011.6
20260506231947 10 242 3.2 9.7 0.00 0.84 0.00 86 1011.5
20260506224947 10 284 3.2 11.3 0.00 0.84 0.00 86 1011.5
20260506223448 10 234 3.2 8.0 0.00 0.84 0.00 87 1011.5
20260506221948 10 284 1.6 9.7 0.00 0.84 0.00 87 1011.5
20260506220448 10 244 3.2 9.7 0.00 0.84 0.00 86 1011.4
20260506214943 10 252 3.2 8.0 0.00 0.84 0.84 86 1011.1
20260506213444 10 278 3.2 16.1 0.00 0.84 0.84 87 1011.1
20260506211945 10 251 4.8 16.1 0.00 0.89 0.84 88 1011.1
20260506210450 10 238 4.8 11.3 0.00 0.94 0.84 88 1011.0
20260506204946 10 250 3.2 16.1 0.00 1.04 0.84 87 1010.8
20260506203443 10 217 1.6 9.7 0.00 1.14 0.84 87 1010.6
20260506201944 10 194 3.2 9.7 0.00 1.17 0.84 87 1010.6
20260506194948 10 265 3.2 11.3 0.00 1.19 0.84 86 1010.4